Wind_Speed
19 19 18 17 16 14 14 15 15 15 13 12 13 13 13 13 11 11 11 10 10 9 8 8 8 9 9 10 11 12 14 15 16 17 18 19 19 20 19 19 18 17 17 16
16 16 16 17 16 15 15 15 15 15 13 13 12 12 11 12 11 10 10 10 10 10 9 8 9 9 9 10 11 12 13 15 16 17 17 18 19 19 19 19 18 17 16 15
14 15 16 17 17 16 16 15 14 14 12 11 10 9 10 10 10 11 10 11 11 11 10 8 9 9 9 10 11 12 13 15 15 16 17 18 19 19 19 19 17 17 16 15
14 15 15 16 16 15 15 15 13 11 10 8 8 8 9 11 11 11 10 11 11 11 11 9 9 9 9 10 10 12 13 14 15 15 17 18 18 19 19 18 17 16 16 15
12 13 14 14 14 15 14 12 10 8 7 7 7 7 9 13 13 12 11 11 11 11 11 10 9 9 9 10 10 11 12 13 14 15 16 17 18 18 18 18 17 16 16 15
10 10 11 12 12 11 9 8 7 6 5 5 6 8 10 14 14 13 11 11 11 11 11 10 10 9 9 10 10 11 12 12 13 14 15 16 17 18 18 18 17 16 15 15
8 8 8 8 9 8 7 7 6 4 4 5 7 11 12 15 14 14 12 11 11 11 11 11 10 10 10 10 10 11 11 12 12 14 15 16 17 17 18 18 17 16 15 14
3 3 5 6 7 6 7 7 6 6 5 7 8 10 14 16 15 14 13 12 12 12 11 11 11 10 10 10 10 11 11 12 12 13 14 15 16 17 18 17 17 16 15 14
3 3 4 5 6 7 6 7 7 9 8 9 7 9 15 17 15 13 13 13 13 13 12 12 11 11 11 10 10 11 11 11 12 12 13 15 16 16 17 17 17 16 15 15
3 4 5 5 5 6 7 8 9 10 10 9 8 8 14 18 17 14 14 14 14 13 13 13 12 12 11 11 11 11 11 11 11 12 13 14 15 16 16 16 16 16 15 15
3 3 4 5 6 7 8 9 10 11 11 11 11 11 16 19 18 17 16 15 14 14 14 14 13 13 12 11 11 11 11 11 11 11 12 13 14 15 16 16 16 16 16 15
3 2 3 6 7 9 10 11 12 13 13 14 16 15 17 20 20 18 17 16 16 15 15 15 14 14 13 12 12 11 11 11 11 11 12 12 13 15 15 16 16 15 15 15
3 3 4 6 9 11 12 12 14 15 16 15 16 16 17 20 21 20 19 17 16 16 16 16 15 15 14 14 13 12 11 11 11 11 11 12 13 14 15 15 15 15 16 15
4 5 6 9 11 13 14 15 16 17 17 17 17 18 18 21 22 22 21 19 18 17 17 17 17 16 16 15 14 13 12 12 11 11 12 12 13 14 14 14 15 16 16 15
7 7 9 12 13 15 16 17 18 18 18 20 19 20 21 23 24 23 22 21 19 19 19 18 18 18 17 16 16 15 14 13 12 12 12 12 13 13 13 14 15 15 16 16
10 11 12 13 14 16 17 17 18 19 20 21 21 21 21 23 23 24 23 21 20 20 20 20 19 19 19 18 17 16 16 15 14 13 13 13 13 13 14 14 15 15 16 16
13 14 15 15 16 18 17 18 20 21 21 23 23 23 23 22 22 23 23 22 22 21 22 21 21 21 20 20 19 18 17 17 16 15 14 14 14 14 14 14 15 15 15 16
16 17 18 18 18 19 17 20 22 23 23 24 25 24 23 22 22 23 24 23 23 22 22 23 22 22 22 21 20 20 19 18 18 17 16 16 15 15 15 15 15 15 15 16
18 20 21 21 22 21 21 22 23 23 25 26 26 26 24 23 23 25 25 24 23 23 23 23 24 24 23 23 22 21 21 20 20 19 18 17 17 16 16 16 15 16 16 16
22 22 23 23 24 24 24 25 25 26 28 28 28 27 25 24 24 25 26 25 24 25 24 24 25 25 25 25 25 24 23 22 21 21 20 19 19 18 17 17 17 16 17 17
27 26 26 26 26 26 28 28 28 28 30 31 31 30 29 27 27 27 27 27 26 26 26 26 26 26 26 26 26 26 25 24 23 23 22 22 21 20 19 19 18 18 18 18
29 29 29 30 30 31 32 32 32 33 33 34 34 33 32 31 31 30 29 29 29 29 29 29 28 28 28 28 28 28 27 26 26 25 24 24 23 22 21 21 20 20 19 19
32 32 32 33 33 35 36 37 37 37 37 37 38 38 36 35 34 34 33 32 32 31 31 32 31 30 30 30 30 30 29 29 28 27 27 26 25 24 23 23 22 21 21 20
35 37 37 37 36 39 40 41 41 41 41 42 42 42 41 40 38 38 37 36 35 34 34 34 34 33 33 32 32 32 32 31 30 29 29 28 27 26 26 25 24 23 23 22
38 40 40 41 41 42 44 45 45 45 45 45 45 45 45 44 42 41 40 39 39 38 37 37 36 36 35 35 34 34 34 33 32 32 31 30 29 28 27 27 26 25 24 24
41 42 44 45 45 46 47 48 48 48 48 48 48 47 46 46 45 44 43 42 42 41 40 40 39 39 38 37 36 36 35 35 34 33 33 32 31 30 29 28 28 27 26 25
Wind_Direction
199 202 203 206 210 208 214 224 237 247 255 268 277 279 283 288 285 281 283 283 285 283 280 287 298 303 312 319 325 329 330 333 336 337 337 338 340 341 341 340 339 339 338 337
188 191 192 197 204 210 219 225 237 250 259 273 277 280 289 292 290 287 287 284 284 281 277 283 291 298 307 315 322 326 329 332 335 337 339 340 341 342 343 343 342 341 340 340
171 181 188 194 204 213 222 232 242 253 266 274 278 281 289 288 287 288 285 282 281 279 276 276 286 294 304 312 319 324 329 332 335 337 339 341 343 344 345 345 344 343 343 343
166 176 187 196 205 214 227 233 245 256 269 275 291 296 295 296 294 291 283 279 277 276 274 276 283 292 302 310 317 324 328 332 335 337 340 343 344 345 346 346 345 345 346 346
165 181 188 198 207 217 228 235 246 260 279 290 302 307 303 296 296 294 287 280 273 270 270 272 280 291 300 308 315 321 327 331 335 339 342 344 346 347 348 348 348 348 349 349
167 180 192 202 213 224 232 237 248 265 293 317 317 306 296 288 295 298 288 279 271 268 267 268 276 287 297 306 314 319 325 330 335 340 343 344 346 348 350 350 350 351 351 352
164 182 199 213 223 230 233 242 251 275 301 313 306 302 291 288 297 296 289 280 273 268 265 267 274 283 293 303 311 317 322 327 333 339 342 344 346 348 350 350 351 352 353 354
134 200 216 221 227 228 235 246 260 285 299 303 307 308 298 297 296 292 286 281 275 269 265 267 271 279 288 298 307 313 318 324 330 335 339 342 345 348 350 352 353 353 353 354
149 252 242 237 236 238 244 250 256 274 287 294 301 296 295 297 296 291 285 279 272 268 266 266 270 276 284 293 301 309 314 321 327 332 337 341 344 347 350 353 355 355 355 354
180 249 260 260 258 260 263 260 258 270 278 284 293 291 284 292 300 294 287 281 273 267 265 266 270 273 280 288 294 303 310 317 325 330 335 340 343 346 349 352 354 355 357 357
191 256 281 279 276 278 277 275 273 275 281 282 282 276 281 290 294 291 287 282 275 269 266 266 269 271 276 282 288 296 304 311 319 326 332 338 342 345 347 349 351 354 355 355
224 236 284 295 297 293 288 283 279 278 277 276 281 288 288 292 292 288 284 281 275 269 266 265 267 268 272 277 283 290 298 304 311 319 326 333 338 342 345 347 349 351 353 353
261 240 259 276 290 293 292 290 287 283 281 281 283 288 288 291 290 288 285 281 275 269 266 264 263 265 268 273 278 283 290 297 305 313 320 326 332 337 342 345 347 349 350 350
284 260 268 281 282 285 291 294 293 290 287 285 283 283 279 280 282 284 284 280 273 267 264 263 261 262 265 269 273 277 282 288 297 306 313 320 326 332 336 341 344 346 348 348
299 284 278 279 283 285 286 288 289 291 291 289 286 282 281 278 278 279 280 278 273 268 264 262 259 259 262 265 269 273 275 281 289 298 306 313 320 326 330 335 339 342 345 346
306 297 292 290 288 288 290 291 291 292 292 290 288 286 283 280 279 279 279 277 273 268 265 262 259 257 259 261 264 268 271 274 280 289 297 305 311 318 323 327 332 337 339 341
305 300 296 294 291 291 295 296 293 291 291 290 290 289 286 285 282 279 277 275 271 268 264 262 259 257 257 259 261 264 267 270 274 281 289 296 303 308 314 319 325 329 333 336
308 304 300 298 294 291 298 292 291 292 291 289 288 289 288 286 282 278 275 273 271 269 266 262 260 258 257 258 260 262 264 266 270 275 281 288 294 301 306 311 317 322 326 330
309 305 302 300 297 296 293 292 293 292 291 290 289 289 289 286 281 277 276 274 272 269 266 262 260 258 257 258 259 261 262 265 268 271 276 281 287 292 298 303 309 314 319 322
305 301 298 298 297 296 293 291 292 291 288 289 289 289 288 284 280 278 278 276 272 269 266 264 260 258 257 257 258 260 261 263 265 268 272 276 281 285 290 296 301 307 312 316
304 301 297 295 293 291 291 292 291 285 286 289 289 289 287 284 281 278 275 274 272 269 266 264 261 258 257 257 258 259 261 262 264 266 269 272 276 280 284 289 294 299 304 309
298 296 295 293 290 287 290 290 287 285 285 285 285 285 284 282 279 277 275 273 271 268 265 263 261 259 258 258 258 258 260 261 263 264 266 269 272 275 279 283 288 292 297 302
295 294 291 289 287 287 287 286 285 284 283 282 282 281 281 279 278 276 274 272 270 267 265 262 260 259 258 258 258 258 259 260 261 263 264 266 269 272 275 278 283 287 291 295
293 292 291 289 286 284 283 283 284 283 282 280 280 280 279 278 276 274 273 271 269 267 265 263 261 259 258 258 257 257 258 259 260 261 262 264 266 269 271 275 278 282 286 290
294 292 290 288 286 283 282 281 281 281 281 279 279 279 279 278 275 273 271 269 267 266 264 263 261 259 258 257 257 257 257 258 259 260 261 262 264 267 269 272 275 278 281 285
293 291 289 288 287 285 284 282 283 282 282 280 280 279 277 276 275 272 270 268 266 264 263 262 261 259 257 256 256 255 256 257 258 259 259 261 262 264 267 269 272 275 278 282
Height
5799 5806 5811 5815 5819 5823 5827 5831 5832 5833 5835 5837 5838 5839 5840 5840 5840 5840 5840 5840 5840 5840 5840 5840 5840 5839 5838 5837 5836 5835 5833 5831 5828 5825 5822 5819 5815 5811 5807 5803 5799 5796 5792 5789
5802 5807 5811 5815 5819 5823 5826 5829 5830 5831 5833 5835 5837 5837 5838 5837 5837 5838 5838 5838 5838 5838 5838 5838 5838 5838 5837 5836 5835 5833 5832 5829 5827 5824 5821 5817 5814 5810 5806 5802 5798 5795 5791 5788
5804 5809 5812 5816 5819 5822 5825 5827 5829 5830 5832 5834 5835 5836 5837 5836 5836 5836 5837 5837 5837 5836 5836 5837 5837 5837 5836 5835 5833 5832 5830 5828 5826 5823 5820 5817 5813 5809 5805 5801 5797 5794 5790 5787
5804 5809 5813 5816 5819 5822 5825 5827 5829 5830 5832 5833 5835 5835 5835 5834 5834 5834 5834 5835 5835 5835 5835 5835 5835 5835 5834 5833 5832 5831 5829 5827 5824 5822 5819 5816 5812 5809 5805 5801 5797 5793 5790 5787
5807 5810 5814 5817 5820 5822 5824 5827 5829 5830 5831 5833 5833 5834 5835 5833 5833 5833 5833 5833 5833 5833 5833 5833 5833 5833 5833 5832 5831 5829 5828 5826 5823 5821 5818 5815 5811 5808 5804 5800 5797 5793 5790 5787
5809 5812 5815 5818 5820 5823 5825 5827 5829 5830 5831 5832 5833 5834 5834 5832 5831 5831 5831 5831 5831 5831 5831 5832 5832 5831 5831 5830 5829 5828 5826 5824 5822 5820 5817 5814 5811 5808 5804 5800 5796 5793 5790 5787
5812 5815 5817 5819 5821 5824 5826 5828 5829 5830 5831 5832 5832 5832 5833 5830 5830 5830 5829 5829 5829 5829 5830 5830 5830 5830 5829 5828 5827 5826 5825 5823 5821 5819 5816 5814 5811 5807 5804 5800 5797 5793 5790 5787
5816 5818 5819 5821 5822 5824 5825 5827 5829 5829 5830 5831 5831 5831 5831 5829 5829 5828 5827 5827 5827 5827 5828 5828 5828 5828 5827 5827 5826 5825 5823 5822 5820 5818 5816 5813 5810 5807 5804 5800 5796 5793 5790 5787
5818 5819 5820 5821 5823 5824 5825 5826 5828 5828 5829 5830 5831 5831 5829 5826 5826 5826 5825 5825 5825 5825 5825 5826 5826 5826 5826 5825 5824 5823 5822 5820 5819 5817 5815 5812 5809 5806 5803 5800 5796 5793 5790 5787
5818 5820 5821 5822 5823 5824 5825 5826 5827 5827 5827 5828 5829 5829 5827 5824 5823 5823 5823 5822 5822 5823 5823 5823 5823 5823 5823 5823 5822 5822 5820 5819 5817 5815 5813 5811 5809 5806 5803 5800 5796 5793 5790 5787
5819 5820 5821 5822 5823 5823 5824 5825 5825 5825 5825 5826 5826 5828 5824 5822 5821 5821 5820 5820 5820 5820 5820 5821 5821 5821 5821 5821 5820 5819 5819 5817 5816 5814 5812 5810 5808 5805 5802 5799 5796 5793 5790 5787
5819 5820 5820 5821 5822 5822 5822 5823 5823 5823 5823 5823 5823 5825 5821 5819 5818 5817 5817 5816 5816 5817 5817 5817 5818 5818 5818 5818 5818 5817 5816 5815 5814 5813 5811 5809 5807 5804 5801 5799 5796 5793 5790 5787
5819 5820 5821 5821 5822 5821 5820 5820 5820 5820 5820 5819 5819 5822 5818 5816 5814 5813 5813 5813 5813 5813 5813 5814 5814 5815 5815 5815 5815 5814 5814 5813 5812 5811 5809 5807 5805 5803 5800 5798 5795 5792 5789 5786
5818 5819 5820 5820 5819 5818 5817 5817 5817 5816 5816 5815 5816 5816 5815 5812 5811 5810 5809 5809 5808 5809 5809 5810 5810 5811 5811 5812 5812 5811 5811 5811 5810 5809 5807 5806 5804 5802 5799 5797 5794 5791 5788 5786
5817 5818 5817 5816 5816 5816 5815 5815 5814 5813 5812 5811 5811 5810 5809 5808 5806 5805 5804 5804 5804 5804 5805 5805 5806 5806 5807 5808 5808 5808 5808 5807 5807 5806 5805 5803 5802 5800 5798 5795 5793 5790 5787 5785
5815 5815 5814 5814 5813 5812 5812 5811 5810 5809 5808 5806 5805 5805 5804 5802 5801 5801 5800 5800 5800 5800 5800 5800 5801 5802 5802 5803 5804 5804 5804 5804 5804 5803 5802 5801 5799 5798 5796 5794 5791 5789 5786 5784
5812 5811 5811 5810 5809 5808 5808 5808 5806 5804 5803 5802 5800 5800 5798 5797 5797 5796 5795 5795 5795 5795 5795 5795 5796 5797 5798 5798 5799 5799 5799 5800 5799 5799 5798 5797 5796 5795 5793 5791 5789 5787 5785 5782
5809 5807 5806 5805 5805 5804 5807 5803 5801 5800 5798 5796 5795 5793 5793 5792 5791 5790 5789 5789 5789 5790 5790 5790 5791 5791 5792 5793 5794 5794 5794 5795 5795 5795 5794 5794 5793 5791 5790 5788 5787 5785 5782 5780
5804 5803 5802 5800 5799 5799 5799 5797 5795 5794 5792 5790 5788 5787 5787 5787 5786 5783 5783 5783 5784 5784 5784 5784 5785 5786 5786 5787 5788 5789 5789 5789 5790 5790 5789 5789 5788 5787 5786 5785 5783 5781 5779 5777
5800 5798 5797 5795 5793 5793 5793 5790 5789 5789 5785 5783 5781 5780 5780 5780 5780 5779 5778 5777 5778 5778 5778 5778 5779 5779 5780 5781 5782 5782 5783 5784 5784 5784 5784 5784 5783 5783 5782 5781 5779 5778 5776 5774
5793 5792 5790 5788 5787 5785 5784 5782 5782 5782 5778 5775 5774 5773 5773 5772 5772 5772 5771 5771 5771 5771 5771 5771 5772 5773 5773 5774 5775 5775 5776 5777 5777 5778 5778 5778 5778 5777 5777 5776 5775 5773 5772 5770
5787 5785 5784 5782 5780 5780 5776 5775 5774 5772 5769 5767 5766 5765 5765 5764 5763 5763 5763 5763 5763 5763 5764 5764 5764 5765 5766 5766 5767 5768 5769 5770 5770 5771 5771 5771 5771 5771 5771 5770 5769 5768 5767 5766
5779 5778 5775 5774 5774 5770 5767 5764 5763 5762 5761 5759 5757 5756 5756 5755 5755 5754 5754 5755 5754 5755 5755 5755 5756 5757 5757 5758 5759 5760 5761 5761 5762 5763 5763 5764 5764 5764 5764 5764 5763 5763 5762 5760
5771 5768 5765 5764 5763 5760 5757 5754 5752 5750 5749 5748 5746 5745 5745 5745 5745 5744 5744 5744 5744 5745 5745 5746 5746 5747 5748 5749 5750 5751 5752 5753 5754 5755 5755 5756 5756 5757 5757 5757 5757 5756 5755 5754
5761 5758 5755 5752 5751 5748 5746 5742 5740 5738 5736 5735 5733 5733 5732 5732 5732 5732 5732 5732 5733 5734 5734 5735 5736 5737 5738 5739 5740 5741 5742 5743 5744 5745 5746 5747 5748 5749 5749 5749 5749 5749 5748 5747
5750 5746 5742 5740 5738 5734 5732 5729 5727 5725 5723 5721 5720 5720 5719 5718 5718 5718 5718 5719 5720 5720 5721 5722 5723 5725 5726 5728 5729 5731 5732 5733 5734 5736 5737 5738 5739 5740 5741 5741 5741 5741 5741 5740